Weather History for Coleman, TX

Change the Weather History Date:

Saturday, May 3, 2014

  Actual Average (KABI) Record (KABI)
Temperature  
Mean Temperature 68 °F 70 °F  
Max Temperature 92 °F 82 °F 99 °F (1920)
Min Temperature 43 °F 57 °F 33 °F (2013)
Degree Days  
Heating Degree Days 0 1  
Month to date heating degree days 3  
Since 1 July heating degree days 2545  
Cooling Degree Days 2 6  
Month to date cooling degree days 17  
Year to date cooling degree days 150  
Growing Degree Days 18 (Base 50)    
Moisture  
Dew Point 25 °F    
Average Humidity 24    
Maximum Humidity 58    
Minimum Humidity 8    
Precipitation  
Precipitation 0.00 in 0.09 in 2.80 in (1913)
Month to date precipitation 0.26  
Year to date precipitation 6.02  
Sea Level Pressure  
Sea Level Pressure 30.02 in    
Wind  
Wind Speed 4 mph (WSW)    
Max Wind Speed 14 mph    
Max Gust Speed 20 mph    
Visibility 10 miles    
Events      
T = Trace of Precipitation, MM = Missing Value Source: NWS Daily Summary

Daily Weather History Graph

Daily Weather History Graph

Search for Another Location

Airport:

Trip Planner

Search our weather history database for the weather conditions in past years. The results will help you decide how hot, cold, wet, or windy it might be!

Date:

Astronomy

May. 03, 2014 Rise Set
Actual Time 6:50 AM CDT 8:19 PM CDT
Civil Twilight 6:24 AM CDT 8:45 PM CDT
Nautical Twilight 5:52 AM CDT 9:16 PM CDT
Astronomical Twilight 5:20 AM CDT 9:49 PM CDT
Moon 10:24 AM CDT (5/3) No Moon Set
Length of Visible Light 14h 21m
Length of Day
13h 29m
Waxing Crescent, 20% of the Moon is Illuminated
May 3
Waxing Crescent
May 6
First Quarter
May 14
Full
May 21
Last Quarter
May 28
New

Hourly Weather History & Observations

Time (CDT) Temp. Windchill Dew Point Humidity Pressure Visibility Wind Dir Wind Speed Gust Speed Precip Events Conditions
12:15 AM 51.8 °F - 28.0 °F 40% 30.02 in 10.0 mi Calm Calm - N/A   Clear
12:35 AM 50.9 °F - 28.2 °F 42% 30.03 in 10.0 mi West 3.5 mph - N/A   Clear
12:55 AM 52.2 °F - 27.3 °F 38% 30.02 in 10.0 mi Calm Calm - N/A   Clear
1:15 AM 50.0 °F - 27.5 °F 42% 30.02 in 10.0 mi Calm Calm - N/A   Clear
1:35 AM 50.0 °F - 26.8 °F 41% 30.02 in 10.0 mi Calm Calm - N/A   Clear
1:55 AM 49.1 °F - 26.6 °F 42% 30.02 in 10.0 mi WNW 3.5 mph - N/A   Clear
2:15 AM 50.0 °F - 26.1 °F 39% 30.01 in 10.0 mi West 5.8 mph - N/A   Clear
2:35 AM 49.1 °F - 26.4 °F 41% 30.01 in 10.0 mi WNW 3.5 mph - N/A   Clear
2:55 AM 48.2 °F - 27.0 °F 44% 30.01 in 10.0 mi WNW 4.6 mph - N/A   Clear
3:15 AM 47.3 °F - 27.1 °F 46% 30.01 in 10.0 mi West 3.5 mph - N/A   Clear
3:35 AM 47.3 °F - 27.3 °F 46% 30.01 in 10.0 mi WNW 4.6 mph - N/A   Clear
3:55 AM 46.8 °F - 27.3 °F 47% 30.01 in 10.0 mi West 3.5 mph - N/A   Clear
4:15 AM 46.6 °F - 27.9 °F 48% 30.01 in 10.0 mi Calm Calm - N/A   Clear
4:35 AM 46.0 °F - 27.9 °F 49% 30.01 in 10.0 mi Calm Calm - N/A   Clear
4:55 AM 46.4 °F - 27.5 °F 48% 30.01 in 10.0 mi Calm Calm - N/A   Clear
5:15 AM 46.6 °F - 27.3 °F 47% 30.01 in 10.0 mi Calm Calm - N/A   Clear
5:35 AM 45.7 °F 44.4 °F 27.9 °F 50% 30.01 in 10.0 mi West 3.5 mph - N/A   Clear
5:55 AM 45.7 °F - 28.2 °F 51% 30.01 in 10.0 mi Calm Calm - N/A   Clear
6:15 AM 43.9 °F 41.3 °F 28.4 °F 55% 30.03 in 10.0 mi West 4.6 mph - N/A   Clear
6:35 AM 45.3 °F 44.0 °F 28.6 °F 52% 30.03 in 10.0 mi NW 3.5 mph - N/A   Clear
6:55 AM 43.2 °F 40.5 °F 29.1 °F 58% 30.04 in 10.0 mi WSW 4.6 mph - N/A   Clear
7:15 AM 44.6 °F 42.2 °F 29.8 °F 56% 30.05 in 10.0 mi West 4.6 mph - N/A   Clear
7:35 AM 48.2 °F - 30.4 °F 50% 30.05 in 10.0 mi SW 3.5 mph - N/A   Clear
7:55 AM 52.2 °F - 29.8 °F 42% 30.06 in 10.0 mi Calm Calm - N/A   Clear
8:15 AM 55.8 °F - 32.4 °F 41% 30.06 in 10.0 mi Calm Calm - N/A   Clear
8:35 AM 60.1 °F - 30.6 °F 33% 30.07 in 10.0 mi Calm Calm - N/A   Clear
8:55 AM 64.2 °F - 27.9 °F 25% 30.07 in 10.0 mi SW 5.8 mph - N/A   Clear
9:15 AM 67.6 °F - 28.4 °F 23% 30.07 in 10.0 mi WSW 4.6 mph - N/A   Clear
9:35 AM 73.2 °F - 24.3 °F 16% 30.08 in 10.0 mi West 6.9 mph - N/A   Clear
9:55 AM 76.1 °F - 22.8 °F 14% 30.08 in 10.0 mi WSW 11.5 mph 16.1 mph N/A   Clear
10:15 AM 78.1 °F - 22.6 °F 13% 30.07 in 10.0 mi West 9.2 mph 18.4 mph N/A   Clear
10:35 AM 80.1 °F - 22.5 °F 12% 30.07 in 10.0 mi WSW 11.5 mph - N/A   Clear
10:55 AM 81.3 °F - 21.0 °F 11% 30.07 in 10.0 mi West 13.8 mph - N/A   Clear
11:15 AM 82.2 °F - 21.4 °F 11% 30.08 in 10.0 mi WSW 13.8 mph 19.6 mph N/A   Clear
11:35 AM 83.1 °F - 22.3 °F 11% 30.08 in 10.0 mi West 12.7 mph - N/A   Clear
11:55 AM 84.0 °F - 22.6 °F 10% 30.07 in 10.0 mi WSW 6.9 mph - N/A   Clear
12:15 PM 85.8 °F - 21.7 °F 10% 30.07 in 10.0 mi West 10.4 mph - N/A   Clear
12:35 PM 86.0 °F - 21.6 °F 9% 30.07 in 10.0 mi West 10.4 mph 16.1 mph N/A   Clear
12:55 PM 88.0 °F - 23.0 °F 9% 30.06 in 10.0 mi SW 10.4 mph 16.1 mph N/A   Clear
1:15 PM 86.7 °F - 21.0 °F 9% 30.05 in 10.0 mi WNW 10.4 mph - N/A   Clear
1:35 PM 88.2 °F - 21.7 °F 9% 30.05 in 10.0 mi WSW 4.6 mph - N/A   Clear
1:55 PM 88.2 °F - 21.9 °F 9% 30.04 in 10.0 mi SSW 8.1 mph - N/A   Clear
2:15 PM 89.4 °F - 21.4 °F 8% 30.03 in 10.0 mi SSE 3.5 mph - N/A   Clear
2:35 PM 90.0 °F - 20.3 °F 8% 30.02 in 10.0 mi NNW 5.8 mph 16.1 mph N/A   Clear
2:55 PM 90.3 °F - 20.5 °F 8% 30.01 in 10.0 mi NW 6.9 mph 16.1 mph N/A   Clear
3:15 PM 90.0 °F - 20.7 °F 8% 30.01 in 10.0 mi Calm Calm - N/A   Clear
3:35 PM 90.3 °F - 20.8 °F 8% 30.00 in 10.0 mi Calm Calm - N/A   Clear
3:55 PM 91.2 °F - 20.5 °F 8% 29.99 in 10.0 mi WSW 4.6 mph - N/A   Clear
4:15 PM 90.9 °F - 20.5 °F 8% 29.99 in 10.0 mi West 6.9 mph - N/A   Clear
4:35 PM 91.2 °F - 20.8 °F 8% 29.98 in 10.0 mi Calm Calm - N/A   Clear
4:55 PM 92.1 °F - 20.8 °F 8% 29.97 in 10.0 mi WSW 6.9 mph - N/A   Clear
5:15 PM 91.4 °F - 20.5 °F 8% 29.97 in 10.0 mi Calm Calm - N/A   Clear
5:35 PM 92.1 °F - 21.4 °F 8% 29.97 in 10.0 mi SW 8.1 mph - N/A   Clear
5:55 PM 91.8 °F - 20.7 °F 8% 29.97 in 10.0 mi SSW 3.5 mph 10.4 mph N/A   Clear
6:15 PM 91.0 °F - 20.3 °F 8% 29.97 in 10.0 mi Calm Calm - N/A   Clear
6:35 PM 90.9 °F - 21.0 °F 8% 29.96 in 10.0 mi SSW 12.7 mph - N/A   Clear
6:55 PM 90.3 °F - 22.5 °F 9% 29.96 in 10.0 mi SSW 5.8 mph - N/A   Clear
7:15 PM 88.7 °F - 23.0 °F 9% 29.96 in 10.0 mi SSW 5.8 mph - N/A   Clear
7:35 PM 86.0 °F - 25.0 °F 11% 29.96 in 10.0 mi South 5.8 mph - N/A   Clear
7:55 PM 82.6 °F - 26.2 °F 13% 29.97 in 10.0 mi South 6.9 mph - N/A   Clear
8:15 PM 78.8 °F - 25.3 °F 14% 29.97 in 10.0 mi South 5.8 mph - N/A   Clear
8:35 PM 77.9 °F - 24.3 °F 14% 29.98 in 10.0 mi South 6.9 mph - N/A   Clear
8:55 PM 76.3 °F - 24.6 °F 15% 29.98 in 10.0 mi South 5.8 mph - N/A   Clear
9:15 PM 74.7 °F - 24.8 °F 16% 29.99 in 10.0 mi South 5.8 mph - N/A   Clear
9:35 PM 72.3 °F - 25.0 °F 17% 29.99 in 10.0 mi South 6.9 mph - N/A   Clear
9:55 PM 72.1 °F - 23.5 °F 16% 30.00 in 10.0 mi South 6.9 mph - N/A   Clear
10:15 PM 73.4 °F - 22.6 °F 15% 30.01 in 10.0 mi South 5.8 mph - N/A   Clear
10:35 PM 72.3 °F - 23.2 °F 16% 30.01 in 10.0 mi SSW 5.8 mph - N/A   Clear
10:55 PM 68.5 °F - 25.3 °F 20% 30.02 in 10.0 mi SW 5.8 mph - N/A   Clear
11:15 PM 69.1 °F - 25.3 °F 19% 30.02 in 10.0 mi SSW 5.8 mph - N/A   Clear
11:35 PM 68.2 °F - 25.2 °F 20% 30.02 in 10.0 mi SSW 5.8 mph - N/A   Clear
11:55 PM 66.7 °F - 26.1 °F 22% 30.03 in 10.0 mi SSW 6.9 mph - N/A   Clear